[[{"header":{"parameterUnit":"m.s-1","parameterCategory":1,"la1":30.2992,"la2":30.254,"lo1":-89.0895,"lo2":-89.0443,"dy":0.0025,"dx":0.0025,"nx":19,"ny":19,"refTime":"2026-05-22T21:00:00:Z","depth":0,"parameterNumber":2,"parameterNumberName":"U-component_of_WINDS"},"data":[0,0,0,0.5488,0.5492,0.5669,0.5669,0.5874,0.5876,0,0,0,0,0,0,0,0,0,0,0,0.5422,0.5423,0.5488,0.5492,0.5669,0.567,0.5874,0.5876,0,0,0,0,0,0,0,0,0,0,0,0.5422,0.5423,0.5424,0.5493,0.5668,0.567,0.5874,0.5748,0,0,0,0,0,0,0,0,0,0,0.5581,0.5505,0.5422,0.5424,0.5494,0.5668,0.567,0.5743,0.5756,0.5785,0,0.5805,0,0.5844,0.5888,0.5889,0,0,0,0.5503,0.5494,0.5554,0.5424,0.5495,0.5668,0.5592,0.575,0.5766,0.5803,0.5809,0.5817,0.5847,0.5889,0.589,0.6014,0.6014,0,0,0.5494,0.5447,0.5543,0.5563,0.5533,0.5586,0.5597,0.576,0.5764,0.5809,0.5822,0.585,0.5891,0.5892,0.6014,0.6014,0,0,0,0.5458,0.544,0.5496,0.5554,0.5587,0.5591,0.5604,0.5757,0.5779,0.5824,0.5853,0.5892,0.5894,0.6014,0.6014,0.5971,0,0,0,0.5453,0.5419,0.5491,0.5465,0.5584,0.5674,0.5597,0.5768,0.5788,0.5852,0.5892,0.5896,0.6014,0.6014,0.5972,0.5959,0,0,0,0.5416,0.5415,0.5435,0.5462,0.5536,0.5673,0.5704,0.5773,0.5804,0.5889,0.5896,0.6014,0.6014,0.5973,0.596,0.5977,0,0,0,0.5363,0.5396,0.5434,0.5482,0.5534,0.5643,0.5704,0.5789,0.5856,0.5893,0.6014,0.6014,0.5973,0.5962,0.5977,0.5982,0.5979,0,0,0.5379,0.5396,0.5428,0.5467,0.5557,0.562,0.5706,0.5813,0.5865,0.5962,0.5966,0.5972,0.5961,0.5977,0.5981,0.5978,0,0,0,0.5417,0.5439,0.5473,0.5534,0.5614,0.5683,0.5781,0.5821,0.5905,0.5904,0.5984,0.5979,0.599,0.5994,0.5992,0.6005,0.6014,0.6014,0.6014,0.5373,0.5435,0.5492,0.5575,0.5633,0.5733,0.5786,0.5856,0.5904,0.5922,0.5951,0.5946,0.5949,0.5948,0.596,0.5959,0.5958,0.5958,0.5958,0.5402,0.5443,0.5503,0.5579,0.5645,0.571,0.5807,0.5839,0.591,0.5929,0.5943,0.5958,0.5943,0.5957,0.5956,0.5956,0.5956,0.5957,0.5957,0.538,0.541,0.5456,0.5548,0.5613,0.5697,0.5761,0.582,0.5875,0.5888,0.5926,0.5927,0.5935,0.5902,0.5902,0.5902,0.5902,0.5902,0.5902,0.5339,0.5392,0.5438,0.5525,0.557,0.5638,0.5737,0.5784,0.5852,0.5889,0.589,0.5935,0.5929,0.5926,0.5902,0.5902,0.5902,0.5902,0.5902,0.5345,0.5353,0.5424,0.5469,0.5575,0.5634,0.5707,0.5798,0.5845,0.5875,0.5918,0.5903,0.5926,0.5929,0.5927,0.5904,0.5904,0.5904,0.5904,0.5327,0.5343,0.5428,0.5496,0.557,0.5643,0.5722,0.5798,0.588,0.5913,0.5925,0.5927,0.5927,0.595,0.5952,0.5951,0.5935,0.5935,0.5935,0.5334,0.536,0.5415,0.5492,0.5579,0.5652,0.5728,0.5805,0.5899,0.5938,0.5941,0.5939,0.5944,0.5942,0.5981,0.5982,0.5982,0,0]},{"header":{"parameterUnit":"m.s-1","parameterCategory":1,"la1":30.2992,"la2":30.254,"lo1":-89.0895,"lo2":-89.0443,"dy":0.0025,"dx":0.0025,"nx":19,"ny":19,"refTime":"2026-05-22T21:00:00:Z","depth":0,"parameterNumber":3,"parameterNumberName":"V-component_of_WINDS"},"data":[0,0,0,6.9566,6.9571,6.983,6.9831,7.0142,7.0144,0,0,0,0,0,0,0,0,0,0,0,6.948,6.9482,6.9565,6.9571,6.9829,6.9831,7.0141,7.0144,0,0,0,0,0,0,0,0,0,0,0,6.9479,6.9481,6.9484,6.9572,6.9829,6.9831,7.0141,6.9952,0,0,0,0,0,0,0,0,0,0,6.9704,6.9617,6.9481,6.9484,6.9574,6.9829,6.9831,6.9943,6.9964,7.0017,0,7.0065,0,7.011,7.0164,7.0165,0,0,0,6.9577,6.96,6.9678,6.9484,6.9576,6.9829,6.9715,6.9955,6.9978,7.0044,7.007,7.0082,7.0115,7.0166,7.0168,7.0466,7.0467,0,0,6.9563,6.9521,6.9662,6.9693,6.9655,6.9706,6.9722,6.9969,6.9993,7.0071,7.009,7.012,7.0168,7.017,7.0465,7.0466,0,0,0,6.9518,6.9511,6.9583,6.9679,6.9728,6.9714,6.9732,6.9982,7.0009,7.0093,7.0124,7.017,7.0173,7.0464,7.0465,7.0482,0,0,0,6.951,6.9485,6.9577,6.9554,6.9723,6.9859,6.9739,6.9992,7.0021,7.0122,7.017,7.0176,7.0463,7.0465,7.0479,7.0496,0,0,0,6.9466,6.948,6.9515,6.9551,6.9661,6.9856,6.9897,6.9999,7.004,7.0166,7.0177,7.0462,7.0464,7.0476,7.0492,7.0563,0,0,0,6.9407,6.9524,6.9514,6.9657,6.9659,6.9865,6.9896,7.0051,7.0161,7.0171,7.0463,7.0465,7.0476,7.0489,7.056,7.0616,7.0635,0,0,6.9531,6.9537,6.9625,6.9623,6.9821,6.9829,7.0029,7.0167,7.0215,7.0379,7.0387,7.048,7.0492,7.0562,7.0759,7.0774,0,0,0,6.965,6.9712,6.9773,6.9877,6.9988,7.0083,7.0196,7.0247,7.0389,7.0292,7.0526,7.0534,7.0578,7.0606,7.0619,7.0659,7.0477,7.0476,7.0476,6.9765,6.9823,6.9971,7.006,7.016,7.0276,7.0362,7.0451,7.0478,7.0532,7.0581,7.0694,7.0725,7.0735,7.0776,7.0615,7.0615,7.0615,7.0616,6.9952,7.0049,7.0085,7.0241,7.0301,7.0432,7.0547,7.0562,7.0691,7.0661,7.0702,7.0664,7.075,7.0789,7.0617,7.0617,7.0617,7.0617,7.0617,7.0033,7.009,7.0152,7.031,7.0424,7.0509,7.0632,7.0682,7.0729,7.0769,7.0826,7.0826,7.0832,7.0793,7.0793,7.0794,7.0794,7.0794,7.0795,7.0093,7.0163,7.0263,7.0391,7.0465,7.0568,7.0685,7.0758,7.0851,7.0877,7.0878,7.0899,7.0749,7.0709,7.0801,7.08,7.0799,7.0798,7.0798,7.0261,7.0232,7.0385,7.0459,7.0613,7.0723,7.0785,7.093,7.0997,7.1056,7.107,7.095,7.0959,7.0949,7.0917,7.1057,7.1057,7.1057,7.1057,7.033,7.034,7.0509,7.0624,7.0742,7.0815,7.0984,7.1076,7.1166,7.1211,7.1198,7.116,7.1148,7.1164,7.1149,7.112,7.1309,7.1309,7.1309,7.0436,7.046,7.0596,7.0687,7.0812,7.0917,7.1078,7.1206,7.1302,7.1321,7.1247,7.1237,7.1176,7.1153,7.1169,7.1145,7.1093,0,0]}]]